Starlink 11263

operational
NORAD ID: 60725 Int'l Des: 2024-152 Owner: SPXS Country: US Constellation: starlink
LEOCIRCULAR

Starlink 11263について

説明を読み込み中...

リアルタイム位置

3D地球を読み込み中...

次回通過

高度履歴

Altitude vs Time

uPlot chart will show altitude changes over time

軌道要素

1 60725U 24152F 26037.80391652 -.00004912 00000-0 -35746-4 0 9993
2 60725 53.1596 268.5441 0001185 66.1410 293.9732 15.69684518 83980
Epoch: Feb 6, 2026 • Age: 7 hours

現在のステータス

高度 366.7 km
速度 7.69 km/s
衛星直下点 -22.09°S, 66.83°W
打ち上げ日 Aug 28, 2024
運用期間 1.4 years
タイプ internet

技術仕様

分類 Payload
質量 960.00 kg
乾燥質量 910.00 kg
総質量 960.00 kg
長さ 0.30 m
直径 4.10 m
スパン 29.00 m
形状 Box + pan
製造者 SPXS
バスタイプ Starlink V2MD
フェーズステータス In Orbit
所有者/国 SPXS/US

大規模コンステレーション

Loading constellations...